Dewpoint
53 54 53 55 56 55 54 53 51 48 47 48 49 51 50 50 50 49 48 47 46 45 45 46 46 46 46 47 48 48 48 47 47 47 46 44 42 40
55 55 55 56 56 57 56 55 54 52 49 50 49 50 52 50 50 49 49 48 47 47 46 45 45 45 45 45 45 45 46 46 46 45 42 40 38 37
54 55 55 55 56 56 56 55 54 53 51 50 51 52 52 51 49 48 48 48 49 48 46 45 44 44 43 44 44 44 44 43 42 42 41 39 37 37
54 54 54 54 55 55 55 55 55 54 52 51 52 51 51 51 49 48 48 47 47 47 46 46 44 43 43 43 42 42 42 42 42 42 42 41 40 40
53 53 53 54 54 55 55 55 55 54 53 51 50 50 49 47 47 46 44 45 43 43 42 41 40 41 41 41 40 40 40 40 39 40 40 39 39 38
53 46 42 41 41 42 46 46 48 49 50 49 48 47 42 40 39 40 40 40 40 43 43 41 40 39 38 38 38 38 38 38 38 37 37 37 36 36
39 38 36 35 34 34 36 35 37 40 40 40 38 36 35 35 35 36 37 35 37 39 39 38 38 38 38 38 38 38 37 37 37 37 37 35 34 34
35 34 34 35 33 33 32 32 32 34 34 34 32 32 31 31 32 32 32 32 32 35 34 33 37 35 36 35 35 36 36 36 36 35 34 34 34 35
33 32 32 32 32 31 31 31 31 31 31 32 30 29 30 30 31 31 31 31 31 33 32 30 33 33 35 34 35 35 35 36 35 34 33 34 33 33
30 30 29 29 30 31 31 30 30 30 30 30 30 29 30 30 30 30 29 30 30 31 33 27 29 30 32 33 33 34 32 34 33 32 33 32 32 31
28 29 28 27 27 29 29 29 29 29 30 30 30 30 29 30 29 28 26 24 22 25 29 26 29 28 30 32 33 31 31 32 34 33 32 32 32 32
27 26 26 26 26 28 25 24 22 23 27 26 26 25 26 27 29 28 26 22 22 22 26 21 22 23 21 25 24 24 26 29 32 33 33 35 34 31
26 24 25 26 26 25 23 23 23 25 25 23 23 24 25 25 23 20 20 20 19 18 19 20 19 18 18 17 17 17 18 20 22 26 27 27 29 32
23 23 24 26 24 23 23 23 23 22 19 19 20 21 18 18 18 18 19 19 19 18 18 19 19 19 17 16 15 14 16 17 19 21 24 27 28 29
24 23 22 22 23 24 23 21 20 19 18 15 14 12 12 12 12 12 12 13 12 12 11 11 12 14 19 18 17 17 17 17 18 20 27 27 27 27
22 19 17 17 15 15 15 14 15 13 13 10 9 10 10 9 9 9 9 7 8 8 9 10 11 11 13 16 16 15 15 13 14 15 15 18 19 21
18 17 15 13 11 10 9 8 9 9 8 7 8 8 7 7 7 8 7 7 6 6 6 8 7 7 8 8 8 8 8 10 15 19 18 19 18 19
13 12 12 11 9 7 7 7 7 8 8 8 7 6 7 6 6 6 5 6 6 5 4 4 3 4 5 6 8 12 13 11 8 9 10 15 18 22
10 10 9 8 6 6 6 6 6 7 8 6 6 7 6 6 5 5 5 4 4 3 2 2 5 8 6 3 3 3 5 7 7 10 12 15 18 18
6 7 7 7 5 5 7 7 7 8 7 6 6 6 5 5 5 4 3 3 4 4 4 4 3 3 4 5 5 8 8 8 12 14 12 13 17 19
5 6 6 7 7 7 7 7 6 5 5 5 5 4 5 5 3 3 4 4 3 3 3 2 3 4 5 8 5 4 6 7 7 10 13 15 15 15
7 6 6 7 7 6 5 5 4 4 4 4 4 4 4 3 2 3 3 4 3 2 3 3 4 3 2 3 3 3 5 7 9 12 14 16 16 13
7 6 5 6 5 4 4 4 3 4 4 5 4 4 3 2 3 3 4 2 2 3 2 2 2 2 2 3 3 4 7 9 9 10 13 17 20 21
Wind_Speed
18 17 18 17 16 15 16 16 20 19 20 15 15 21 21 23 26 26 26 27 32 33 31 35 37 39 39 38 37 35 34 34 33 31 28 25 24 26
14 16 18 16 16 16 18 19 19 24 26 21 22 21 16 19 23 24 26 27 28 33 35 36 38 40 39 37 36 34 33 32 30 26 22 21 23 26
17 19 22 20 19 18 18 18 19 20 29 26 23 20 17 18 20 20 21 23 23 30 34 35 37 37 36 32 30 27 24 19 18 18 19 22 25 27
20 21 22 18 21 21 19 21 20 22 24 30 21 17 17 15 19 20 21 22 25 27 29 34 34 32 25 18 16 15 14 16 17 16 17 20 23 26
21 21 20 17 17 13 13 17 20 19 16 20 22 17 10 3 6 5 5 6 6 4 1 4 7 9 9 8 8 9 11 13 14 15 17 18 22 27
10 14 14 12 9 8 9 9 12 11 12 16 18 14 5 4 4 7 10 3 5 1 2 3 4 3 3 5 5 10 12 13 14 18 22 20 24 27
18 19 19 19 22 18 10 12 11 8 9 11 9 6 6 6 7 7 6 7 4 5 4 5 5 4 5 8 9 10 14 17 22 24 22 24 27 28
17 15 13 11 13 20 20 22 21 10 10 5 5 6 6 5 6 6 5 5 5 8 6 7 5 7 7 9 12 15 19 21 23 25 25 25 24 23
16 15 15 12 13 11 16 12 19 16 16 8 8 8 5 10 9 7 7 5 5 4 6 9 7 13 12 14 18 21 24 26 30 25 25 26 24 22
17 15 17 15 19 11 12 12 11 12 14 11 10 8 8 9 10 10 12 11 10 9 8 12 8 15 13 14 20 25 24 29 29 27 27 29 26 25
18 19 16 16 19 17 11 11 10 12 5 5 4 5 7 7 7 8 9 13 11 9 9 11 9 14 12 14 14 20 23 20 22 30 29 29 28 25
15 14 20 16 17 17 15 13 12 12 11 12 11 10 8 8 6 7 12 14 14 7 10 16 14 12 11 9 13 15 16 18 19 19 21 20 24 17
14 13 12 15 15 15 14 11 11 10 12 12 12 12 13 14 12 12 12 10 12 12 15 11 13 15 12 20 19 20 22 20 16 14 18 19 21 23
13 11 10 13 12 15 12 14 14 12 12 12 12 14 15 15 15 14 15 14 12 15 16 14 14 17 19 20 20 18 16 18 18 18 13 17 22 20
10 13 15 14 13 12 15 22 18 15 15 16 16 15 15 14 15 15 15 16 16 16 16 19 19 20 20 21 19 16 18 17 16 15 14 15 16 14
10 15 16 16 17 15 15 16 14 15 15 15 15 15 14 15 16 16 17 17 18 17 16 17 18 18 19 18 19 20 18 18 18 17 18 19 19 15
12 15 16 15 14 14 15 16 15 16 16 15 15 16 15 16 15 15 16 17 17 18 18 16 18 20 20 20 19 18 19 20 17 17 17 19 19 16
14 15 15 14 14 14 15 15 15 16 15 14 14 15 15 15 16 16 16 16 17 17 18 19 21 21 20 20 18 17 17 19 20 19 17 17 20 13
16 15 14 14 14 14 14 14 14 14 14 13 13 14 14 15 17 17 16 17 17 18 18 19 19 19 21 24 21 21 23 22 20 20 18 17 18 17
14 14 14 14 13 13 13 13 12 12 12 13 13 13 14 15 16 16 17 17 18 19 19 17 17 18 20 23 28 24 24 22 20 19 20 19 17 22
14 13 13 12 12 11 12 11 12 13 13 14 13 14 14 15 16 16 17 18 20 18 20 19 19 24 20 20 22 22 19 24 25 22 20 19 18 19
12 12 12 11 11 10 11 12 12 13 13 13 13 13 13 15 16 17 17 18 18 19 20 20 19 19 20 20 23 25 24 21 24 25 24 23 16 10
12 11 10 10 10 10 11 12 12 12 12 12 13 13 14 16 16 17 17 18 19 19 20 21 20 19 20 21 23 24 26 23 22 24 23 24 26 30
Wind_Direction
224 229 237 243 242 230 222 222 228 256 255 245 240 235 235 243 246 244 239 238 229 222 227 229 231 232 232 235 234 237 239 241 242 242 241 242 249 254
221 225 232 236 236 232 230 229 226 238 256 254 264 263 241 233 241 240 240 235 232 231 232 232 235 236 233 231 232 230 231 235 235 235 238 241 245 250
230 228 233 233 236 238 236 236 234 231 250 264 263 268 263 237 238 235 240 243 246 244 240 239 240 240 236 234 234 231 230 237 241 240 240 244 247 251
237 235 235 236 241 244 245 241 233 236 247 267 270 264 262 238 239 242 243 244 249 248 245 244 242 237 234 220 218 222 230 236 240 248 251 258 263 265
243 246 251 259 264 264 245 243 240 251 259 271 275 280 275 283 268 267 277 278 272 37 125 202 197 200 191 188 196 225 236 245 251 256 257 256 261 263
265 54 50 42 23 352 342 12 353 318 288 277 278 286 304 334 324 291 286 326 292 311 72 123 121 132 174 192 213 239 245 242 251 258 259 260 262 258
72 74 74 73 67 57 68 32 11 12 351 335 343 349 355 356 346 331 307 326 320 354 311 321 341 303 255 254 248 257 261 259 256 256 261 257 257 255
82 86 86 76 74 69 62 61 62 32 49 21 20 10 10 351 348 345 338 347 312 21 341 322 307 279 272 249 245 249 255 258 261 265 258 250 248 247
83 79 73 56 50 49 63 52 54 49 53 45 52 28 13 5 348 344 349 332 309 340 338 287 258 267 260 263 265 261 258 257 257 244 244 244 238 236
68 64 65 47 37 38 48 52 56 47 44 41 41 21 12 1 2 349 331 311 296 283 265 284 281 275 266 258 257 257 268 256 245 242 248 247 243 246
68 61 55 47 38 32 38 32 63 37 46 30 22 355 345 338 343 340 350 342 326 327 356 327 337 331 312 286 273 281 280 284 282 266 251 247 243 246
76 67 51 45 40 38 45 41 36 3 15 7 8 2 353 8 2 5 10 5 354 326 24 359 341 0 320 332 339 325 324 321 323 312 314 287 253 248
71 59 47 46 53 60 48 39 24 355 13 14 4 9 31 27 26 9 8 0 337 316 324 337 313 312 296 304 298 301 305 303 297 286 293 297 284 265
76 64 50 70 68 48 41 23 16 34 22 10 15 28 17 11 2 358 357 347 334 320 320 307 290 290 284 285 290 301 300 298 296 296 295 284 284 278
78 68 50 46 48 51 47 52 43 32 28 29 20 10 0 353 354 352 351 345 338 333 326 321 315 314 306 300 284 279 300 302 295 298 307 295 289 278
68 64 48 36 37 36 37 32 37 30 33 20 6 356 354 357 354 351 345 340 332 325 323 323 324 328 325 320 317 314 309 301 304 299 297 292 291 287
60 62 52 39 31 32 30 28 27 26 22 9 6 1 357 352 347 346 338 337 332 328 329 335 336 329 320 313 311 308 306 303 312 333 336 309 289 286
60 59 51 39 32 33 30 25 22 21 10 7 5 355 348 345 340 338 337 332 330 333 333 333 329 323 318 311 315 335 333 325 320 316 310 306 311 310
61 55 50 38 30 29 29 20 13 8 3 2 351 348 344 341 339 334 335 336 333 329 325 319 319 322 326 321 322 327 319 313 312 308 301 297 295 297
53 51 44 37 27 22 22 11 3 358 1 353 348 348 346 337 336 337 335 328 325 322 319 325 329 328 322 312 309 310 306 304 305 302 299 296 285 282
39 39 37 33 23 16 11 8 2 359 356 350 350 344 341 343 336 328 324 324 322 323 323 323 320 316 312 311 309 310 309 308 306 305 301 300 301 307
34 31 27 23 17 13 7 8 359 357 349 348 345 346 345 336 324 322 323 323 325 322 319 317 321 325 320 314 312 311 310 308 305 300 298 289 283 270
31 24 13 11 9 12 9 4 353 344 343 345 346 342 335 325 323 320 323 323 319 320 321 322 322 319 316 313 308 307 305 310 312 308 299 289 272 259